Regional Weather Roundup
Issued by NWS Bismarck, ND

Home | Current Version | Previous Version | Text Only | Print | Product List | Glossary On
Versions: 1 2 3 4 5 6 7 8 9 10 11 12 13 14 15 16 17 18 19 20 21 22 23 24 25 26 27 28 29 30 31 32 33 34 35 36 37 38 39 40 41 42 43 44 45 46 47 48 49 50
000
ASUS43 KBIS 272159
RWRBIS

NWR BROADCAST TEXT
NATIONAL WEATHER SERVICE BISMARCK ND
400 PM CST THU NOV 27 2014

NOTE: "FAIR" INDICATES FEW OR NO CLOUDS BELOW 12,000 FEET WITH NO
SIGNIFICANT WEATHER AND/OR OBSTRUCTIONS TO VISIBILITY.


CITY           SKY/WX    TMP DP  RH WIND       PRES   REMARKS
WILLISTON      CLOUDY    20  15  81 SE10      29.86F WCI   9
MINOT          LGT SNOW  13   8  81 E15       30.00F WCI  -3
MINOT AFB      NOT AVBL
BISMARCK       SNOW      12   9  87 SE21      30.05F VSB 1/2 WCI  -7
DICKINSON      NOT AVBL
GARRISON         N/A     13  11  92 SE18      29.97F WCI  -4
HETTINGER ARPT CLOUDY    23  18  81 S13       29.88F WCI  11
JAMESTOWN      NOT AVBL
CARRINGTON     CLOUDY     5   0  78 SE17      30.15F WCI -14
CROSBY         SNOW      19  19 100 E16       29.92R VSB 1/2 WCI   5
$$

CITY           SKY/WX    TMP DP  RH WIND       PRES   REMARKS
GRAND FORKS    CLOUDY     4  -5  66 S13       30.31F WCI -13
GRAND FORKS AF NOT AVBL
DEVILS LAKE    CLOUDY     7  -8  51 SE14      30.15S WCI -10
FARGO          CLOUDY     8  -2  63 S13       30.32F WCI  -8
GRAFTON        FAIR       7   0  72 S15       30.29F WCI -11
$$

CITY           SKY/WX    TMP DP  RH WIND       PRES   REMARKS
ABERDEEN       CLOUDY    13   4  67 SE10      30.20F WCI   0
MOBRIDGE       CLOUDY    17  11  77 SE18      30.02F WCI   1
BUFFALO          N/A     31  23  72 S12       29.79F
RAPID CITY     MOSUNNY   36  28  73 SE9       29.89F
GLASGOW        PTCLDY    34  29  82 E10       29.74S
SIDNEY         CLOUDY    30  25  80 SE7       29.83F
WOLF POINT     CLOUDY    34  29  82 E9        29.76F
GLENDIVE       CLOUDY    37  28  70 S14       29.78F
MILES CITY     PTSUNNY   43  34  70 SW5       29.80S
BAKER          CLOUDY    40  29  64 SE6       29.80F
$$

CITY           SKY/WX    TMP DP  RH WIND       PRES   REMARKS
BILLINGS       MOSUNNY   51  30  44 SW18G26   29.85R
GREAT FALLS    SUNNY     57  34  41 SW28G38   29.74R
$$




USA.gov is the U.S. government's official web portal to all federal, state and local government web resources and services.